COSMOS 2251 DEB

基本信息
目录编号:
40797
目录名称:
COSMOS 2251 DEB
国际标识:
1993-036BWA
轨道中心:
EARTH
物体状态:
在轨
发射日期:
1993-06-16 UTC
轨道信息
数据来源: 国际轨道数据
星历时间: 2026-08-30T18:35:36+0800
半长轴: 6887.186km
偏心率: 0.0056909
轨道倾角: 73.929°
近地点辐角: 116.426°
升交点赤经: 269.062°
平近点角: 244.280°
近地点: 469.854km
远地点: 548.244km
周期: 94.803分钟
每日圈数: 15.189383
详细信息
发射场:
PKMTR
轨道高度:
LEO
数据来源:
AOE Integration Group
参考系:
TEME
时间系统:
UTC
历元类型:
SGP4
2D轨道图
3D轨道图
轨道高度分析图
轨道倾角分析图
轨道综合分析图
查看轨道综合分析图